Date String (YYYY-MM-DD hh:mm:ss) UTC,Instrument flags,Ambient pressure (hPa),Sample flow (lpm),Bypass flow (lpm),Sample temperature (°C),Ambient temperature (°C),ASC tube jacket temperature (°C),LED temperature (°C),Box temperature (°C),Sample RH (%),Span deviation,Mass concentration (μg/m³),Mass concentration (μg/m³),Mass concentration (μg/m³)
DateTimeUTC,F1_M11,P_M11,Q1_M11,Q2_M11,T1_M11,T2_M11,T3_M11,T4_M11,T5_M11,U1_M11,ZSPAN_M11,X2_M11,X0_M11,X1_M11
2022-04-22 01:00:00,,0817.7,5.00,0.00,29.5,28.3,00.0,38.3,31.4,14.3,0000.0,0010.44,0034.95,0006.12
2022-04-22 01:01:00,,0817.8,4.99,0.00,29.6,28.5,00.0,38.3,31.5,14.3,0000.0,0010.55,0034.55,0006.12
2022-04-22 01:02:00,,0817.8,5.02,0.00,29.6,28.7,00.0,38.4,31.6,14.2,0000.0,0010.64,0034.66,0006.12
2022-04-22 01:03:00,,0817.9,4.99,0.00,29.7,28.9,00.0,38.4,31.7,14.1,0000.0,0010.62,0033.58,0006.12
2022-04-22 01:04:00,,0817.8,5.02,0.00,29.7,29.0,00.0,38.4,31.7,14.1,0000.0,0010.52,0034.88,0006.13
2022-04-22 01:05:00,,0817.8,4.99,0.00,29.7,27.5,00.0,38.5,31.4,14.0,0000.0,0010.48,0035.59,0006.15
2022-04-22 01:06:00,,0817.8,5.00,0.00,29.6,25.4,00.0,38.4,30.9,13.9,0002.5,0010.51,0034.99,0006.16
2022-04-22 01:07:00,,0817.8,5.01,0.00,29.4,25.2,00.0,38.4,30.8,13.9,0004.0,0010.56,0034.83,0006.18
2022-04-22 01:08:00,,0817.8,4.99,0.00,29.3,25.7,00.0,38.4,30.8,14.0,0004.1,0010.57,0035.72,0006.18
2022-04-22 01:09:00,,0817.8,4.99,0.00,29.3,26.2,00.0,38.3,30.9,14.0,0003.9,0010.46,0035.83,0006.17
2022-04-22 01:10:00,,0817.9,5.01,0.00,29.3,26.7,00.0,38.3,31.1,13.9,0002.6,0010.50,0036.14,0006.16
2022-04-22 01:11:00,,0817.8,4.99,0.00,29.3,27.2,00.0,38.3,31.2,13.9,0002.5,0010.50,0036.49,0006.17
2022-04-22 01:12:00,,0817.8,5.00,0.00,29.4,27.5,00.0,38.3,31.3,14.0,0002.7,0010.47,0038.59,0006.17
2022-04-22 01:13:00,,0817.8,5.01,0.00,29.4,27.8,00.0,38.3,31.3,14.0,0002.3,0010.44,0041.18,0006.17
2022-04-22 01:14:00,,0817.9,4.99,0.00,29.5,28.0,00.0,38.3,31.4,14.1,0001.1,0010.36,0041.92,0006.16
2022-04-22 01:15:00,,0817.9,5.01,0.00,29.5,28.3,00.0,38.3,31.4,14.0,0001.3,0010.40,0041.19,0006.16
2022-04-22 01:16:00,,0817.9,4.99,0.00,29.6,28.5,00.0,38.3,31.5,13.8,0001.0,0010.48,0041.23,0006.14
2022-04-22 01:17:00,,0817.9,5.00,0.00,29.6,28.6,00.0,38.4,31.6,13.7,0000.4,0010.50,0041.30,0006.14
2022-04-22 01:18:00,,0817.9,5.00,0.00,29.7,28.7,00.0,38.4,31.6,13.7,-000.1,0010.40,0040.57,0006.11
2022-04-22 01:19:00,,0817.8,5.00,0.00,29.7,28.9,00.0,38.4,31.7,13.7,-000.2,0010.38,0040.69,0006.12
2022-04-22 01:20:00,,0817.9,4.99,0.00,29.8,28.9,00.0,38.5,31.7,13.6,-000.4,0010.43,0040.42,0006.12
2022-04-22 01:21:00,,0817.8,5.01,0.00,29.8,27.4,00.0,38.5,31.4,13.6,-000.2,0010.41,0041.06,0006.13
2022-04-22 01:22:00,,0817.8,5.00,0.00,29.6,25.1,00.0,38.5,30.8,13.7,-000.7,0010.35,0041.23,0006.16
2022-04-22 01:23:00,,0817.8,5.00,0.00,29.4,25.0,00.0,38.4,30.7,13.7,-001.1,0010.25,0040.21,0006.15
2022-04-22 01:24:00,,0817.8,5.00,0.00,29.3,25.5,00.0,38.4,30.8,13.8,-000.6,0010.15,0037.87,0006.14
2022-04-22 01:25:00,,0817.7,5.00,0.00,29.3,26.0,00.0,38.3,30.9,13.8,0000.2,0010.12,0037.62,0006.16
2022-04-22 01:26:00,,0817.8,5.00,0.00,29.3,26.6,00.0,38.3,31.0,13.7,0000.5,0010.09,0037.10,0006.17
2022-04-22 01:27:00,,0817.8,5.00,0.00,29.3,27.0,00.0,38.3,31.1,13.7,0000.8,0010.11,0037.03,0006.19
2022-04-22 01:28:00,,0817.8,5.01,0.00,29.3,27.4,00.0,38.3,31.2,13.7,0001.3,0010.09,0038.43,0006.19
2022-04-22 01:29:00,,0817.8,5.00,0.00,29.4,27.7,00.0,38.3,31.3,13.6,0001.4,0010.16,0039.73,0006.20
2022-04-22 01:30:00,,0817.8,4.99,0.00,29.4,28.0,00.0,38.3,31.3,13.5,0001.0,0010.25,0038.75,0006.20
2022-04-22 01:31:00,,0817.9,5.01,0.00,29.5,28.2,00.0,38.3,31.4,13.6,0001.1,0010.29,0037.91,0006.20
2022-04-22 01:32:00,,0817.9,5.00,0.00,29.5,28.4,00.0,38.3,31.5,13.9,0001.6,0010.37,0037.36,0006.21
2022-04-22 01:33:00,,0817.9,5.01,0.00,29.6,28.5,00.0,38.3,31.5,13.8,0002.7,0010.36,0036.98,0006.20
2022-04-22 01:34:00,,0818.0,4.99,0.00,29.6,28.6,00.0,38.4,31.6,13.7,0002.8,0010.42,0037.19,0006.20
2022-04-22 01:35:00,,0818.0,5.02,0.00,29.7,28.7,00.0,38.4,31.6,13.8,0002.7,0010.43,0037.29,0006.19
2022-04-22 01:36:00,,0818.0,5.00,0.00,29.7,28.7,00.0,38.4,31.7,13.6,0002.9,0010.51,0037.69,0006.19
2022-04-22 01:37:00,,0818.0,4.99,0.00,29.8,28.8,00.0,38.5,31.7,13.5,0003.1,0010.55,0037.78,0006.17
2022-04-22 01:38:00,,0817.9,5.01,0.00,29.7,27.5,00.0,38.5,31.3,13.5,0003.1,0010.50,0038.45,0006.16
2022-04-22 01:39:00,,0817.9,5.00,0.00,29.5,25.1,00.0,38.5,30.7,13.6,0003.1,0010.43,0036.50,0006.16
2022-04-22 01:40:00,,0817.8,5.00,0.00,29.4,24.8,00.0,38.4,30.6,13.6,0003.0,0010.41,0035.12,0006.16
2022-04-22 01:41:00,,0817.8,5.00,0.00,29.3,25.2,00.0,38.4,30.7,13.7,0002.7,0010.41,0034.66,0006.17
2022-04-22 01:42:00,,0817.8,5.01,0.00,29.2,25.8,00.0,38.3,30.8,13.9,0002.9,0010.36,0034.46,0006.16
2022-04-22 01:43:00,,0817.8,4.99,0.00,29.2,26.4,00.0,38.3,30.9,13.9,0002.2,0010.26,0034.99,0006.14
2022-04-22 01:44:00,,0817.8,4.99,0.00,29.3,26.9,00.0,38.2,31.0,13.8,0001.2,0010.24,0035.02,0006.14
2022-04-22 01:45:00,,0817.9,5.01,0.00,29.3,27.3,00.0,38.2,31.1,13.6,0001.9,0010.19,0033.52,0006.13
2022-04-22 01:46:00,,0817.9,4.99,0.00,29.3,27.6,00.0,38.2,31.2,13.5,0002.3,0010.19,0032.39,0006.12
2022-04-22 01:47:00,,0817.9,5.02,0.00,29.3,27.8,00.0,38.2,31.2,13.4,0001.9,0010.14,0031.20,0006.10
2022-04-22 01:48:00,,0817.9,4.99,0.00,29.4,28.0,00.0,38.3,31.3,13.3,0001.2,0010.04,0030.80,0006.09
2022-04-22 01:49:00,,0817.9,5.00,0.00,29.4,28.2,00.0,38.3,31.4,13.3,0000.7,0009.98,0030.26,0006.09
2022-04-22 01:50:00,,0817.9,4.98,0.00,29.5,28.3,00.0,38.3,31.4,13.5,0000.5,0010.01,0029.31,0006.08
2022-04-22 01:51:00,,0817.9,5.01,0.00,29.5,28.4,00.0,38.3,31.5,13.4,0001.2,0010.05,0029.75,0006.07
2022-04-22 01:52:00,,0817.9,5.00,0.00,29.6,28.5,00.0,38.3,31.5,13.5,0001.6,0010.06,0029.60,0006.08
2022-04-22 01:53:00,,0817.9,4.99,0.00,29.6,28.6,00.0,38.4,31.6,13.6,0001.5,0010.03,0030.11,0006.08
2022-04-22 01:54:00,,0817.9,5.02,0.00,29.7,28.7,00.0,38.4,31.6,13.7,0001.9,0010.00,0029.48,0006.09
2022-04-22 01:55:00,,0817.9,4.99,0.00,29.7,28.8,00.0,38.4,31.7,13.7,0002.6,0010.00,0028.74,0006.10
2022-04-22 01:56:00,,0817.9,5.00,0.00,29.7,28.8,00.0,38.5,31.7,13.7,0002.4,0010.06,0029.42,0006.13
2022-04-22 01:57:00,,0817.9,5.01,0.00,29.8,28.7,00.0,38.5,31.7,13.7,0001.6,0010.02,0029.63,0006.14
2022-04-22 01:58:00,,0817.8,5.00,0.00,29.7,26.7,00.0,38.5,31.2,13.7,0000.8,0010.04,0030.88,0006.15
2022-04-22 01:59:00,,0817.9,4.99,0.00,29.5,25.7,00.0,38.5,30.9,13.8,0001.6,0010.04,0031.45,0006.18
